Home > Weather > Male > Past weeks

Flag for Maldives Past Weather in Male, Maldives — Yesterday and Last 2 Weeks

Now
84 °F

Partly sunny.


Feels Like: 92 °F
Forecast: 81 / 83 °F
Wind: 14 mph from Northwest

Location: Male Airport

Current Time: Jul 27, 2016 at 6:28:37 PM

Latest Report: Jul 27, 2016 at 5:00 PM


Visibility: N/A

Pressure: 29.77 "Hg

Humidity: 74%

Dew Point: 75 °F

Location of MaleLocation

Past Weather in Male — Graph

°F

Male Temperature Yesterday

Maximum temperature yesterday: 88 °F (at 12:00 PM)
Minimum temperature yesterday: 81 °F (at 8:00 PM)
Average temperature yesterday: 85 °F

High & Low Weather Summary for the Past Weeks

 TemperatureHumidityPressure
High88 °F (Jul 24, 10:00 AM)94% (Jul 14, 9:00 PM)29.89 "Hg (Jul 14, 9:00 PM)
Low79 °F (Jul 14, 9:00 PM)66% (Jul 22, 11:00 AM)29.74 "Hg (Jul 14, 4:00 AM)
Average84 °F76%29.81 "Hg
* Reported Jul 12 4:00 PM — Jul 27 4:00 PM, Male, Weather by CustomWeather, © 2016

Note: Actual official high and low records may vary slightly from our data, if they occured in-between our weather recording intervals... More about our weather records

Advertising

Male Weather History for the Previous 24 Hours

Scroll right to see more
 ConditionsComfort  
Time TempWeatherWind HumidityBarometerVisibility
4:00 PM
Wed, Jul 27
84 °FBroken clouds.15 mph70%29.77 "HgN/A
3:00 PM84 °FBroken clouds.16 mph74%29.77 "HgN/A
2:00 PM84 °FBroken clouds.20 mph70%29.77 "HgN/A
1:00 PM84 °FPartly sunny.17 mph70%29.80 "HgN/A
12:00 PM84 °FPartly sunny.16 mph74%29.83 "HgN/A
11:00 AM82 °FPartly sunny.17 mph79%29.83 "HgN/A
10:00 AM82 °FPartly sunny.17 mph79%29.83 "HgN/A
9:00 AM82 °FPartly sunny.17 mph74%29.83 "HgN/A
8:00 AM82 °FBroken clouds.13 mph79%29.83 "HgN/A
7:00 AM81 °FMore clouds than sun.16 mph79%29.80 "HgN/A
6:00 AM81 °FSprinkles. Mostly cloudy.20 mph79%29.80 "Hg5 mi
5:00 AM81 °FMostly cloudy.16 mph89%29.80 "HgN/A
4:00 AM81 °FMostly cloudy.10 mph84%29.77 "HgN/A
3:00 AM81 °FOvercast.17 mph79%29.77 "HgN/A
2:00 AM81 °FLight rain. Overcast.18 mph74%29.77 "Hg5 mi
1:00 AM79 °FSprinkles. Overcast.21 mph89%29.80 "Hg5 mi
10:00 PM
Tue, Jul 26
82 °FOvercast.9 mph74%29.83 "HgN/A
9:00 PM82 °FOvercast.12 mph74%29.83 "HgN/A
8:00 PM81 °FMostly cloudy.14 mph79%29.80 "HgN/A
7:00 PM82 °FSprinkles. Mostly cloudy.25 mph84%29.77 "Hg5 mi
6:00 PM84 °FMore clouds than sun.16 mph74%29.77 "HgN/A
Weather by CustomWeather, © 2016

See weather overviewHow to use our weather pages